This demonstration page uses our WeatherBlox Daily Observations layout. Learn more.

Left ArrowRight Arrow

39.29038, -76.61219

Hourly Observations for July 14, 2021

Temp ( °F °C ) Dew Point ( °F °C ) Humidity (%) Winds ( mph kmh ) Pressure ( in mb ) Visibility ( mi km ) Precip ( " mm )
12:54 am 00:54 Cloudy 83 28.3 71 21.7 67 67 VRB 6 9 30.13 1020 10 16 N/A
1:54 am 01:54 Mostly Cloudy 82 27.8 72 22.2 72 72 SW 8 13 30.13 1020 10 16 N/A
2:54 am 02:54 Mostly Cloudy 82 27.8 72 22.2 72 72 SW 5 7 30.14 1021 10 16 N/A
3:54 am 03:54 Partly Cloudy 80 26.7 72 22.2 76 76 SW 6 9 30.14 1021 10 16 N/A
4:54 am 04:54 Mostly Clear 79 26.1 71 21.7 77 77 SW 5 7 30.14 1021 10 16 N/A
5:54 am 05:54 Mostly Sunny 76 24.4 71 21.7 85 85 N N/A 30.16 1021 10 16 N/A
6:54 am 06:54 Mostly Sunny 78 25.6 72 22.2 82 82 SW 3 6 30.16 1021 10 16 N/A
7:54 am 07:54 Partly Cloudy 82 27.8 71 21.7 69 69 SW 5 7 30.17 1022 10 16 N/A
8:54 am 08:54 Mostly Sunny 85 29.4 71 21.7 63 63 W 6 9 30.17 1022 10 16 N/A
9:54 am 09:54 Partly Cloudy 89 31.7 67 19.4 48 48 WNW 10 17 30.17 1022 10 16 N/A
10:54 am 10:54 Partly Cloudy 91 32.8 66 18.9 44 44 WSW 10 17 30.16 1021 10 16 N/A
11:54 am 11:54 Partly Cloudy 92 33.3 65 18.3 41 41 WNW 13 20 30.15 1021 10 16 N/A
12:54 pm 12:54 Mostly Cloudy 94 34.4 64 17.8 37 37 WSW 12 19 30.14 1021 10 16 N/A
1:54 pm 13:54 Mostly Cloudy 92 33.3 64 17.8 40 40 VRB 3 6 30.13 1020 10 16 N/A
2:54 pm 14:54 Mostly Cloudy 93 33.9 66 18.9 41 41 W 10 17 30.12 1020 10 16 N/A
3:54 pm 15:54 Mostly Cloudy 94 34.4 65 18.3 38 38 VRB 6 9 30.10 1019 10 16 N/A
4:54 pm 16:54 Mostly Cloudy 89 31.7 68 20 50 50 S 6 9 30.11 1020 10 16 N/A
5:54 pm 17:54 Mostly Cloudy 85 29.4 71 21.7 63 63 SSE 7 11 30.11 1020 10 16 N/A
6:54 pm 18:54 Mostly Cloudy 84 28.9 70 21.1 63 63 S 6 9 30.09 1019 10 16 N/A
7:54 pm 19:54 Mostly Cloudy 83 28.3 69 20.6 63 63 SW 8 13 30.11 1020 10 16 N/A
8:54 pm 20:54 Mostly Cloudy 79 26.1 68 20 69 69 SW 8 13 30.12 1020 10 16 N/A
9:54 pm 21:54 Mostly Cloudy 78 25.6 69 20.6 74 74 SSW 8 13 30.15 1021 10 16 N/A
10:54 pm 22:54 Partly Cloudy 76 24.4 70 21.1 82 82 SW 5 7 30.14 1021 10 16 N/A
11:54 pm 23:54 Partly Cloudy 75 23.9 70 21.1 84 84 W 5 7 30.14 1021 10 16 N/A

Powered by AerisWeather